Theta_e
326 327 330 335 338 340 342 342 342 342 341 342 340 340 338 338 337 336 336 335 334 332 329 326 324 321 318 317 316 316 317 315 316 315 314 313 311 310 309 309 308 308 307
325 327 330 332 334 338 340 341 340 340 339 339 339 339 339 337 336 335 334 334 332 329 326 323 321 319 317 316 316 316 316 315 315 315 314 312 311 311 309 308 308 306 305
327 328 330 331 332 334 336 338 340 339 339 338 338 337 336 334 333 332 334 333 331 328 326 322 320 318 317 316 316 317 316 316 315 314 313 312 310 308 306 306 306 306 304
320 321 325 328 331 332 332 334 334 334 335 335 334 335 333 333 332 332 332 329 330 330 326 323 321 320 317 316 316 317 318 315 314 312 311 310 307 306 305 305 305 305 304
317 317 318 319 321 324 326 329 331 330 330 332 331 331 331 331 330 330 329 328 328 326 323 323 321 320 318 316 316 318 316 313 312 310 309 303 302 301 302 303 305 305 304
316 315 315 315 316 317 318 319 321 322 323 323 324 326 326 327 327 327 326 326 324 322 321 320 319 318 316 314 315 316 312 312 309 307 305 302 302 302 302 304 304 304 306
313 312 312 313 313 314 314 315 316 317 318 319 319 320 320 321 321 321 321 322 321 321 319 318 316 315 313 310 308 306 306 305 303 303 302 302 302 301 303 304 303 303 302
310 310 310 310 310 311 311 311 312 312 313 314 315 315 316 316 313 313 313 315 315 315 314 313 311 306 305 306 306 304 302 302 301 301 300 301 301 302 303 303 302 301 299
309 308 308 308 309 309 309 309 309 310 310 310 310 310 310 308 306 307 306 305 304 303 303 304 304 302 302 302 301 299 299 299 299 298 299 300 301 301 300 300 298 298 297
307 306 307 307 306 306 307 307 307 307 307 305 303 302 300 299 299 300 301 299 298 297 297 297 297 297 297 297 298 297 296 296 297 298 298 299 299 299 298 298 297 298 297
305 305 304 304 303 303 305 304 303 303 300 297 296 296 297 297 297 298 298 297 297 297 296 296 296 295 295 295 294 294 294 294 296 297 297 297 296 296 296 296 296 296 295
303 302 301 301 301 301 301 300 299 299 297 295 296 296 297 297 297 297 296 296 295 295 294 294 294 293 292 292 292 292 292 293 294 295 295 295 295 295 294 294 294 293 293
299 298 299 298 298 298 296 297 297 297 297 296 296 297 297 297 297 296 295 295 295 295 295 293 293 293 292 292 292 292 292 292 292 293 293 293 294 295 294 292 292 291 291
296 296 296 296 295 294 293 293 293 292 292 294 295 295 296 295 295 295 295 295 296 295 294 293 292 292 292 291 291 292 292 292 292 292 292 293 293 292 291 291 290 290 290
294 293 293 293 293 293 292 291 291 290 291 291 291 292 292 292 293 293 294 294 295 294 293 292 292 291 291 291 291 291 291 291 291 291 292 292 291 291 290 290 290 289 289
292 291 291 291 291 290 290 291 290 290 290 291 291 291 291 292 292 293 293 293 294 293 292 291 291 291 291 291 291 291 291 291 292 291 291 291 290 290 290 290 289 289 290
290 289 290 289 289 289 289 290 291 290 290 290 290 292 291 291 292 292 292 292 293 291 290 290 291 290 290 291 291 291 291 291 291 290 290 290 290 290 290 289 289 289 290
289 288 289 289 289 288 288 289 290 290 290 290 290 290 290 290 290 291 291 291 291 290 290 290 290 290 290 290 291 291 291 290 290 289 290 290 290 290 289 289 289 290 291
288 289 288 288 288 288 288 289 288 289 289 289 289 289 289 289 290 290 290 290 289 290 290 290 290 290 290 290 290 290 290 290 290 289 289 289 289 290 290 289 290 290 290
286 286 285 287 288 289 289 288 288 288 288 289 290 289 288 287 289 290 290 290 289 290 290 290 290 289 290 289 290 289 290 290 289 289 289 289 289 290 290 289 290 290 290
284 284 283 284 284 285 285 287 288 287 288 288 288 288 286 285 287 289 290 290 289 290 289 290 289 289 289 289 289 289 289 289 289 289 289 289 289 289 289 289 289 290 291
282 282 282 283 283 283 282 283 284 285 286 287 287 286 286 286 287 287 288 289 289 289 289 289 289 289 289 289 289 289 289 289 289 289 289 289 289 289 289 289 289 289 290
281 281 281 281 281 281 282 281 282 283 284 284 284 284 284 285 285 285 286 287 289 288 288 288 288 289 288 288 289 288 289 289 289 289 289 289 289 289 289 289 289 289 289
279 279 279 279 279 279 279 280 280 280 280 281 281 281 281 282 282 283 285 287 288 287 288 288 288 288 288 288 289 289 288 288 288 288 289 289 289 289 289 289 289 289 289
277 277 277 277 277 277 277 278 278 278 278 278 278 278 278 279 280 281 283 283 283 284 284 284 285 285 286 286 287 287 288 287 288 288 288 288 289 289 289 289 289 289 289
276 275 275 275 275 275 275 275 276 276 276 276 276 276 276 276 276 277 277 277 279 279 280 280 281 283 284 284 285 286 287 287 287 287 287 288 288 288 289 289 289 289 289
Wind_Speed
16 16 17 19 20 21 23 23 21 21 19 19 18 19 21 24 25 25 27 28 29 31 32 31 33 31 29 28 26 24 24 25 13 19 18 17 18 17 16 16 17 18 17
18 17 16 16 17 19 20 21 19 18 17 19 20 21 22 23 21 23 25 29 29 30 30 30 29 29 28 26 26 26 27 26 25 20 19 18 18 17 17 17 16 17 19
20 18 16 16 15 15 16 18 18 17 18 18 19 21 22 22 22 21 28 31 30 30 32 32 33 32 30 29 30 30 29 27 25 21 17 16 16 14 15 15 16 17 17
22 23 23 21 19 16 13 13 14 15 17 16 20 21 20 23 26 28 26 31 28 35 39 38 35 33 35 34 32 31 30 26 23 21 16 12 13 13 12 14 16 17 16
17 18 20 21 22 21 18 15 14 14 14 15 17 22 24 28 27 29 28 31 34 35 35 36 37 37 39 38 34 34 32 28 24 20 15 9 11 9 13 14 15 14 14
16 16 15 16 18 19 19 18 17 16 15 14 15 19 23 26 27 28 29 29 32 30 28 31 34 35 38 40 38 35 30 26 17 14 11 11 14 12 12 16 14 12 6
14 15 16 16 16 17 16 16 16 16 16 16 15 16 18 20 23 24 25 30 27 28 28 24 20 25 27 26 19 11 11 9 11 12 12 13 10 12 13 15 12 12 13
14 15 16 18 15 16 17 17 17 15 15 15 15 15 16 17 21 23 23 21 26 21 21 20 20 16 17 23 23 21 15 12 11 12 13 12 13 13 17 12 13 10 8
16 16 16 16 17 17 18 18 18 18 17 17 17 18 18 17 22 18 14 8 2 2 2 6 13 14 16 18 19 17 13 10 13 17 18 20 13 15 14 14 11 8 5
17 17 17 17 18 18 18 19 19 18 18 17 16 17 16 23 21 16 11 14 18 17 17 16 13 11 7 2 4 7 11 14 17 16 14 15 13 14 16 17 11 11 8
15 15 17 18 17 18 17 17 19 19 17 16 19 22 23 22 23 22 19 17 12 9 7 5 3 2 3 4 5 7 10 12 13 15 16 15 13 12 15 16 11 8 7
15 15 16 17 17 18 18 18 18 16 15 16 19 18 15 13 12 17 12 8 5 3 2 1 3 4 5 6 7 9 11 12 13 15 15 15 16 17 15 13 11 10 10
13 13 14 14 15 15 15 14 13 13 13 13 13 10 12 14 15 15 11 8 6 7 7 6 7 7 7 8 10 11 12 14 14 14 14 16 21 18 15 13 10 8 9
13 14 13 13 13 13 14 15 15 16 15 14 13 14 15 16 15 14 16 15 14 12 8 8 9 9 8 10 11 14 14 14 16 15 13 16 15 14 16 14 10 9 7
10 11 12 11 12 12 11 13 12 14 14 14 14 15 15 16 18 18 17 18 17 14 10 11 10 10 10 10 10 11 12 15 15 16 15 15 16 17 14 12 10 12 5
9 10 11 11 11 11 13 13 13 14 13 12 12 14 16 14 16 16 16 16 15 10 8 8 8 9 9 9 9 9 9 12 14 14 15 17 19 18 15 12 11 11 8
9 11 10 11 11 12 13 14 16 18 14 13 13 13 13 15 16 15 15 14 10 5 6 7 8 8 7 8 8 8 8 8 11 12 15 18 19 17 16 13 12 10 9
10 10 12 11 11 13 12 14 13 14 14 14 13 14 15 15 16 15 13 10 7 6 8 8 8 7 8 8 7 6 7 7 8 11 14 17 19 19 16 14 14 11 11
15 14 15 14 13 13 13 12 12 12 12 13 13 12 16 18 15 15 14 10 10 10 9 8 8 7 7 7 5 6 7 7 8 10 13 17 19 19 16 16 15 13 12
14 15 16 16 17 15 15 14 14 13 14 14 13 14 16 18 15 15 15 15 12 9 8 7 6 5 5 5 5 6 6 6 6 8 12 16 19 19 17 17 16 14 12
14 15 16 15 16 17 17 18 17 15 14 14 14 14 17 17 15 15 15 16 13 8 7 6 5 4 3 4 3 4 5 5 5 6 10 14 18 19 18 18 17 14 11
14 16 16 17 17 17 18 18 17 18 17 16 14 15 17 16 15 16 17 20 12 7 5 4 3 3 3 3 3 5 5 5 5 6 7 12 16 19 18 18 16 16 15
15 16 17 17 17 18 18 17 17 16 15 16 17 17 17 17 16 17 19 21 6 2 1 2 1 1 2 3 3 3 4 5 5 6 8 9 13 17 19 18 18 16 16
15 15 15 16 17 18 18 18 18 18 17 17 18 19 19 18 18 19 20 9 0 2 3 3 2 2 2 3 3 4 5 5 5 6 7 9 11 14 18 19 19 18 18
14 15 15 16 16 17 18 18 18 19 18 18 19 19 19 17 16 17 14 7 5 5 6 5 4 3 3 4 4 3 4 5 5 5 7 9 11 13 16 19 20 19 19
15 15 15 16 17 17 17 18 18 19 19 19 20 20 19 18 17 16 15 15 12 10 9 8 7 6 6 5 5 4 4 5 5 5 5 8 10 12 14 16 19 20 20
Wind_Direction
321 306 292 281 271 264 259 258 251 252 249 251 249 244 238 233 233 232 236 238 243 241 240 232 231 224 217 210 207 209 222 219 226 230 221 216 219 232 241 242 250 254 254
338 328 320 312 296 280 270 270 265 259 256 253 252 250 246 241 225 226 235 245 242 239 237 230 222 216 212 209 209 210 215 218 223 227 219 218 227 239 241 243 240 243 247
12 2 355 345 329 310 291 280 273 273 274 272 267 262 254 245 248 241 242 242 247 246 246 232 225 214 213 212 213 215 214 213 218 227 218 213 226 229 233 237 240 241 245
25 23 19 12 359 346 333 317 303 296 291 287 275 263 260 259 252 252 251 247 244 246 239 235 229 217 215 212 209 209 213 208 209 215 214 201 206 213 224 228 233 233 247
29 28 22 14 11 6 5 356 346 339 327 309 305 286 273 260 254 256 253 251 248 245 238 236 232 226 222 215 206 212 205 202 205 203 201 165 178 187 213 222 236 233 242
16 13 18 22 12 3 0 0 1 359 350 342 335 304 292 278 275 265 257 252 245 240 239 239 239 234 228 219 221 210 203 197 199 192 188 188 201 195 214 221 217 230 246
17 13 5 17 16 2 355 357 360 355 354 355 349 338 320 308 307 295 282 263 255 246 243 243 234 227 218 212 189 176 181 182 189 196 192 210 208 202 223 218 223 234 250
17 10 7 9 10 11 358 1 358 356 357 352 346 338 332 330 326 324 316 292 258 256 248 241 225 203 194 186 186 184 177 195 201 214 229 237 230 227 213 210 221 223 248
16 12 12 8 9 15 357 356 356 356 359 358 358 355 354 353 340 343 345 300 278 85 119 204 188 177 172 174 163 150 158 188 220 227 233 233 225 219 221 206 184 190 219
13 11 12 13 11 5 356 359 356 360 3 5 13 20 35 57 52 50 55 73 71 69 68 64 65 82 94 93 201 192 196 206 216 223 226 229 226 222 217 215 204 204 218
12 14 16 14 11 6 6 10 11 16 25 38 54 62 63 61 54 46 46 53 55 56 49 28 16 323 290 256 239 226 220 224 230 227 229 226 210 211 214 210 205 210 224
12 17 18 17 18 18 21 23 27 31 43 50 53 54 51 47 32 14 7 23 26 15 0 305 278 281 275 250 239 245 243 240 245 229 221 213 213 213 212 209 213 213 226
18 17 17 18 19 19 22 21 22 22 20 9 360 351 351 351 351 357 5 354 334 302 294 288 289 291 288 267 246 243 248 246 243 236 229 223 223 213 201 197 208 219 235
25 20 12 12 9 9 15 16 11 10 356 349 355 353 352 358 1 355 347 339 335 309 284 279 298 291 289 283 271 256 246 239 234 237 232 236 227 200 191 196 191 188 200
24 14 7 4 2 3 5 2 3 4 1 360 357 353 353 345 341 334 333 329 321 315 276 272 289 296 293 283 270 263 247 236 243 242 234 223 202 190 185 187 191 180 182
16 8 4 357 358 359 357 351 2 6 5 360 356 351 340 332 331 331 325 319 313 299 258 273 289 286 277 280 273 257 243 239 240 238 228 211 191 184 180 185 184 178 177
22 12 6 7 2 360 357 354 344 345 354 355 355 358 354 345 340 333 331 334 322 270 267 285 289 280 279 280 270 261 257 255 254 242 223 205 191 180 179 179 177 182 184
12 9 5 355 349 348 344 333 338 333 334 338 344 350 349 354 353 351 346 342 331 302 283 284 287 283 282 282 274 262 261 258 250 238 216 201 187 176 174 179 183 185 172
356 347 341 333 326 323 324 325 324 326 328 327 329 337 338 341 342 347 352 335 310 303 296 289 281 278 279 277 266 270 269 262 252 234 213 199 189 178 176 185 185 181 170
332 328 327 319 313 314 313 310 313 313 316 320 324 334 340 335 329 334 339 337 321 298 287 287 272 271 271 258 267 271 270 266 252 232 215 204 195 185 181 181 181 169 179
340 335 333 329 326 321 318 323 317 309 309 309 309 317 323 326 315 322 323 327 320 297 283 276 260 259 275 279 264 267 264 266 243 232 216 207 199 186 185 183 181 177 170
352 347 344 340 337 334 331 318 312 322 313 311 315 318 320 320 320 315 320 325 313 289 268 259 259 268 253 273 283 275 266 264 258 229 222 208 201 193 188 183 181 182 170
358 354 354 354 351 343 339 339 332 324 330 330 320 315 317 317 313 312 309 320 303 300 197 176 144 18 321 307 291 284 265 267 258 240 221 210 201 197 192 183 182 178 176
6 0 354 352 354 356 359 355 352 350 346 341 339 334 327 323 317 310 304 297 232 84 93 100 82 23 335 309 290 287 289 273 263 242 225 216 208 201 195 186 184 182 179
11 6 5 2 360 357 356 356 356 357 356 355 352 349 343 338 339 350 16 23 50 54 51 49 47 32 18 4 330 287 287 274 255 248 224 213 211 203 198 192 185 184 180
19 16 12 8 6 3 1 359 359 359 358 358 359 359 0 1 1 4 9 15 21 34 37 27 17 7 354 334 316 301 294 278 260 245 220 209 208 203 200 197 193 185 181